Wind_Speed
85 89 92 86 89 90 92 93 87 88 86 89 89 88 87 92 94 97 96 96 96 95 92 96 99 103 110 104 104 101 95 88 84 80 77 71 68 68
94 95 89 94 96 100 96 97 95 93 95 95 94 93 98 101 100 101 100 98 98 94 100 96 107 118 115 114 104 91 79 69 61 57 57 56 55 55
98 97 96 97 99 98 98 100 99 100 100 101 101 100 104 103 102 102 101 99 96 107 100 113 125 114 115 102 90 69 57 56 55 52 50 49 50 52
92 90 93 96 103 98 104 103 107 106 104 106 104 102 100 100 102 101 105 109 114 114 120 125 126 120 99 86 64 62 64 65 65 63 63 61 60 60
98 101 101 100 100 103 106 111 108 109 110 112 106 108 109 111 115 115 119 126 130 133 139 143 124 114 87 72 72 74 75 76 76 77 77 76 75 75
101 103 100 101 102 100 108 108 105 111 109 107 113 112 117 119 122 126 129 133 140 142 147 140 122 93 79 84 86 87 88 89 90 90 91 92 91 91
95 99 101 99 104 105 107 108 103 102 107 109 110 116 121 126 131 132 137 141 145 150 142 122 86 86 91 94 97 99 101 102 101 100 101 101 102 102
101 101 100 100 106 106 100 99 106 112 113 119 119 122 126 131 138 144 148 150 158 131 108 88 94 96 101 105 108 111 111 108 107 105 102 101 101 99
106 110 111 107 107 106 105 107 114 117 120 121 124 128 133 138 144 155 154 146 116 94 89 96 101 105 110 115 119 119 116 112 108 104 103 100 99 97
99 101 106 107 110 116 112 114 119 121 124 126 133 135 141 147 150 141 120 113 101 101 102 102 108 112 118 124 124 121 114 109 104 103 100 95 91 87
104 107 109 112 113 118 126 124 127 130 131 135 136 146 147 132 119 95 98 97 101 106 112 113 117 120 123 124 121 118 113 106 101 95 91 88 85 80
112 111 114 118 122 129 127 135 136 142 141 148 147 142 118 99 102 103 104 106 109 112 119 120 125 122 119 121 119 113 107 103 101 96 91 84 76 70
125 132 137 137 136 140 143 145 149 146 145 136 105 98 101 103 106 109 111 113 115 118 123 121 120 119 116 110 111 108 103 103 99 91 84 76 67 60
136 140 143 142 139 143 140 144 146 129 98 95 100 101 105 108 110 113 117 118 121 122 121 120 117 114 111 107 104 103 99 93 85 81 77 71 64 61
125 141 146 149 148 142 128 100 89 88 94 100 102 105 109 111 114 117 117 119 122 122 120 118 113 111 106 102 99 94 84 80 76 72 71 65 59 58
70 72 74 76 79 80 83 86 91 95 100 102 106 111 114 116 115 112 114 117 119 121 119 113 109 103 100 97 87 78 71 70 68 65 65 61 53 52
76 77 78 80 82 85 89 93 98 102 104 108 111 115 115 111 108 109 113 114 116 116 115 108 101 98 90 81 75 67 65 66 60 56 59 58 48 50
81 82 84 86 89 93 96 101 104 106 108 112 113 112 107 104 105 108 111 113 112 109 103 97 91 86 81 74 62 59 61 59 57 54 52 55 47 44
89 89 89 91 94 98 102 104 106 108 110 109 108 104 102 104 106 108 110 108 105 97 93 85 77 71 68 68 64 51 59 58 55 51 48 48 46 40
92 92 93 97 101 102 104 106 106 105 105 105 99 99 102 103 106 107 104 98 93 88 82 73 64 61 59 59 58 55 52 55 53 50 46 42 42 38
94 96 100 103 103 103 102 101 99 99 98 97 98 100 102 104 104 99 93 88 81 74 70 63 58 55 55 55 54 53 50 49 51 50 45 40 37 36
98 99 101 100 100 98 95 93 92 95 95 97 99 100 101 99 94 88 84 76 69 63 59 56 53 51 50 52 51 49 46 43 42 44 44 40 35 32
97 98 99 96 93 86 87 89 92 97 98 97 98 98 97 91 84 78 71 63 58 55 53 51 49 48 48 48 47 45 41 40 39 36 37 39 34 30
Wind_Direction
279 278 282 281 285 287 290 291 289 290 289 291 292 290 291 294 295 297 298 297 299 300 301 306 305 308 307 306 299 297 297 295 293 290 288 283 281 276
276 277 278 283 286 287 286 288 288 289 288 290 290 289 292 294 295 295 295 299 300 300 307 307 309 311 309 307 302 302 300 298 296 292 287 282 278 273
275 278 280 281 282 281 284 286 287 288 288 290 291 291 292 293 293 295 301 303 303 309 310 312 312 311 311 302 302 300 300 298 297 295 289 284 279 273
274 273 277 275 280 279 284 286 286 287 289 289 291 293 293 295 299 302 305 310 311 313 311 314 312 308 305 303 298 295 295 294 292 289 286 283 279 273
268 274 278 277 279 281 284 285 288 287 292 295 295 301 301 306 306 306 309 312 310 311 314 312 312 308 301 297 295 293 292 290 289 287 285 281 278 275
272 274 273 276 278 279 283 286 288 289 295 297 297 299 301 301 302 307 306 305 309 309 308 313 307 303 296 297 297 295 293 291 289 286 284 281 279 277
269 271 273 275 277 280 283 285 289 290 291 292 292 295 297 300 303 305 305 301 306 304 308 305 302 301 299 297 295 295 293 291 289 289 289 287 283 279
265 270 271 275 278 280 279 280 286 287 289 292 293 294 297 298 300 302 303 302 309 305 304 299 299 299 299 298 297 294 292 294 296 294 290 285 281 277
267 269 269 272 274 276 277 280 284 286 288 290 291 293 295 298 297 301 299 301 302 301 299 298 300 300 300 297 295 294 298 298 296 293 288 284 281 277
262 264 268 270 271 273 275 281 283 286 288 289 289 294 295 297 299 300 301 297 299 299 299 300 300 299 296 294 297 300 299 297 294 292 289 287 283 280
261 264 266 269 271 271 278 283 283 285 286 288 291 293 298 297 296 298 301 297 298 300 300 300 297 295 297 300 301 301 300 298 296 294 292 290 288 285
261 262 262 264 272 274 279 279 285 284 288 289 294 294 290 290 293 295 297 299 301 300 299 297 297 300 302 302 301 301 301 301 301 299 296 292 289 285
262 266 268 270 273 275 279 281 284 287 290 292 289 288 290 293 295 298 301 301 300 298 296 298 301 302 303 302 302 302 303 302 301 299 296 294 290 285
263 264 266 269 274 278 282 283 286 287 286 285 285 289 292 295 298 300 301 301 298 296 299 303 304 305 305 304 303 302 303 301 298 297 296 295 294 289
264 265 269 270 274 279 281 281 282 284 283 285 289 292 294 297 299 300 301 299 299 301 304 305 306 306 304 303 302 303 301 299 297 297 295 294 293 288
271 273 274 274 274 277 280 282 283 284 286 290 292 294 296 298 300 301 299 299 301 303 306 306 306 304 303 303 303 302 301 296 297 297 295 293 293 287
272 274 276 277 278 279 280 282 284 286 289 291 294 295 298 301 300 298 298 300 302 305 305 304 304 303 303 303 303 304 301 298 299 299 296 294 296 291
274 274 275 278 280 281 282 282 285 289 292 294 296 298 300 299 298 299 300 302 304 303 303 303 305 304 304 303 302 304 300 300 300 300 297 296 296 291
273 275 278 279 281 281 283 287 290 293 295 298 298 300 299 300 300 301 303 303 303 303 304 304 304 303 304 304 306 308 305 305 304 303 301 298 297 293
277 279 281 280 282 285 288 291 294 296 298 299 298 299 300 301 302 303 303 303 304 305 303 304 304 304 304 304 307 308 308 307 306 305 303 299 297 293
279 280 281 282 285 289 292 295 297 299 298 299 301 301 301 302 302 302 303 305 305 304 303 304 306 306 306 306 308 308 310 309 307 306 305 302 298 292
278 280 283 286 289 292 295 298 300 301 301 302 301 300 301 302 303 304 304 304 304 303 303 304 305 306 307 308 309 309 310 307 305 303 303 302 299 292
280 282 285 289 293 297 300 301 303 302 301 301 300 301 303 304 304 304 303 303 303 303 304 305 306 308 308 309 310 310 310 308 306 304 302 302 300 295
Height
10633 10628 10627 10624 10624 10622 10618 10617 10616 10614 10612 10608 10604 10599 10595 10590 10584 10577 10571 10567 10559 10554 10550 10540 10530 10520 10510 10501 10493 10485 10478 10472 10466 10459 10455 10452 10450 10448
10613 10611 10608 10607 10604 10601 10598 10596 10594 10591 10591 10588 10586 10581 10576 10569 10564 10556 10548 10543 10535 10530 10524 10513 10508 10495 10483 10471 10462 10456 10450 10443 10439 10436 10433 10430 10429 10428
10596 10594 10592 10589 10585 10581 10578 10576 10572 10568 10566 10566 10563 10561 10555 10548 10541 10534 10526 10518 10510 10505 10493 10486 10479 10468 10457 10448 10438 10433 10429 10427 10424 10422 10419 10417 10415 10414
10579 10576 10572 10568 10566 10562 10557 10556 10550 10548 10542 10540 10537 10536 10529 10522 10515 10508 10497 10488 10479 10472 10464 10454 10447 10440 10431 10423 10417 10413 10412 10410 10408 10406 10404 10402 10400 10398
10559 10558 10554 10549 10546 10541 10535 10530 10529 10525 10519 10514 10507 10501 10496 10492 10486 10479 10471 10457 10449 10444 10431 10427 10417 10411 10405 10401 10397 10393 10391 10389 10386 10383 10381 10379 10376 10375
10537 10538 10534 10529 10524 10522 10514 10512 10506 10502 10496 10491 10486 10479 10472 10467 10461 10453 10447 10436 10422 10417 10406 10398 10391 10383 10378 10373 10368 10364 10361 10359 10357 10354 10352 10348 10346 10344
10519 10514 10512 10508 10505 10502 10498 10492 10485 10480 10476 10470 10465 10460 10450 10444 10440 10428 10423 10418 10402 10398 10384 10369 10366 10359 10353 10346 10340 10332 10327 10324 10321 10318 10315 10312 10307 10303
10498 10496 10491 10487 10484 10480 10474 10471 10467 10462 10457 10451 10443 10437 10429 10425 10418 10405 10395 10388 10375 10360 10363 10344 10347 10335 10325 10312 10303 10294 10287 10285 10282 10279 10272 10265 10259 10256
10481 10479 10473 10468 10465 10462 10459 10454 10450 10444 10439 10433 10424 10417 10411 10403 10395 10382 10372 10366 10351 10342 10341 10331 10321 10308 10293 10278 10266 10257 10253 10247 10240 10233 10225 10219 10214 10212
10456 10456 10452 10447 10443 10441 10439 10437 10432 10427 10421 10416 10405 10396 10387 10379 10368 10358 10343 10340 10329 10317 10312 10312 10296 10282 10262 10243 10230 10221 10215 10208 10201 10188 10180 10175 10170 10170
10438 10436 10432 10426 10423 10418 10418 10416 10411 10407 10399 10394 10386 10377 10365 10355 10342 10332 10325 10318 10309 10293 10278 10276 10259 10250 10232 10213 10197 10183 10174 10166 10158 10150 10141 10135 10129 10131
10416 10411 10407 10402 10405 10400 10399 10391 10389 10382 10379 10372 10364 10351 10339 10329 10322 10313 10306 10294 10282 10272 10248 10243 10221 10211 10208 10181 10162 10148 10138 10126 10114 10106 10099 10095 10093 10095
10396 10392 10390 10387 10387 10380 10378 10371 10366 10363 10354 10348 10332 10324 10315 10307 10298 10288 10277 10266 10252 10235 10216 10208 10197 10182 10166 10161 10137 10118 10108 10095 10081 10070 10063 10062 10062 10063
10377 10375 10365 10364 10368 10365 10364 10349 10350 10339 10328 10324 10312 10302 10294 10284 10274 10264 10249 10232 10212 10200 10188 10173 10165 10148 10133 10121 10107 10093 10081 10067 10055 10046 10040 10036 10035 10032
10357 10357 10354 10352 10352 10349 10337 10334 10328 10321 10311 10300 10291 10282 10272 10263 10252 10238 10218 10200 10178 10163 10155 10143 10129 10116 10102 10092 10082 10069 10059 10042 10032 10027 10018 10016 10016 10008
10340 10337 10334 10333 10329 10326 10321 10315 10308 10297 10286 10278 10270 10260 10249 10238 10225 10209 10190 10171 10154 10134 10121 10113 10101 10089 10076 10064 10055 10046 10036 10023 10016 10009 9999 9994 9996 9989
10322 10320 10318 10315 10312 10306 10300 10291 10281 10272 10265 10257 10248 10236 10225 10211 10195 10179 10163 10148 10132 10117 10097 10083 10075 10062 10049 10043 10032 10026 10014 10001 9998 9993 9980 9972 9978 9969
10303 10301 10299 10295 10289 10282 10274 10264 10258 10251 10244 10234 10222 10209 10197 10182 10168 10151 10137 10122 10108 10091 10076 10064 10052 10036 10023 10015 10020 10010 9994 9987 9980 9975 9969 9957 9958 9955
10280 10279 10276 10271 10264 10255 10248 10242 10235 10229 10220 10206 10192 10180 10168 10153 10139 10125 10111 10097 10082 10067 10053 10044 10034 10022 10009 9997 9990 9995 9976 9968 9962 9957 9951 9945 9941 9940
10258 10256 10253 10244 10237 10231 10225 10220 10213 10204 10192 10179 10166 10153 10140 10128 10113 10099 10086 10072 10058 10044 10031 10024 10016 10007 9997 9987 9977 9971 9968 9954 9946 9941 9937 9934 9927 9925
10237 10233 10226 10220 10214 10210 10204 10198 10189 10179 10165 10152 10138 10126 10114 10102 10088 10075 10061 10048 10037 10025 10012 10005 9999 9992 9983 9974 9967 9960 9954 9944 9933 9925 9922 9920 9917 9913
10213 10208 10202 10198 10193 10190 10183 10174 10163 10152 10138 10126 10113 10103 10092 10080 10065 10051 10039 10029 10018 10009 9999 9992 9986 9978 9971 9963 9955 9948 9941 9935 9928 9919 9911 9908 9906 9904
10191 10187 10182 10179 10174 10167 10159 10148 10137 10124 10113 10102 10090 10079 10067 10054 10042 10032 10021 10012 10003 9994 9987 9979 9973 9967 9960 9952 9945 9936 9931 9924 9917 9913 9904 9897 9895 9893